Location: Handeloh
(53.2500°N, 9.8330°E)
Time: 16:42:28
(UTC+01:00)

S-56A Canister/Altair - Pass Details

Date: 19 November 2019
Orbit: 632 x 2500 km, 38.9° (Epoch: 14 December)

Event Time Altitude Azimuth Distance (km) Brightness Sun altitude
Rises 20:32:03 0° 255° (WSW) 4,268 12.0 -37.1°
Reaches altitude 10° 20:36:12 10° 240° (WSW) 2,941 10.9 -37.7°
Enters shadow 20:38:39 16° 222° (SW) 2,312 10.1 -38.0°
Maximum altitude 20:40:44 19° 198° (SSW) 2,012 - -38.3°
Drops below altitude 10° 20:44:25 10° 154° (SSE) 2,316 - -38.8°
Sets 20:47:12 0° 135° (SE) 3,081 - -39.2°
